CAPE
0 0 0 0 0 0 0 1128 2014 2253 2118 1900 1719 1590 1553 1325 1319 1455 1367 1306 1098 905 743 652 514 342 158 64 49 50 57 33
0 0 0 0 0 0 0 982 1964 2157 2107 1885 1694 1431 1364 1370 1127 1087 1220 1293 1112 919 758 605 434 307 108 42 34 48 38 30
0 0 0 0 0 0 0 1390 1989 2092 2073 1758 1532 1281 1188 1099 1260 1088 1052 879 917 779 589 463 348 194 79 23 14 31 27 5
0 0 0 0 0 0 0 1553 1927 2035 1851 1433 1212 1065 986 989 902 1071 945 853 656 540 449 323 258 171 88 40 9 23 9 11
0 0 0 0 0 0 1 1568 1955 1827 1576 1395 1123 954 932 877 814 686 690 693 592 461 361 260 175 143 64 37 1 10 17 7
45 0 0 0 0 0 28 1377 1724 1663 1395 1211 1043 892 764 705 630 532 540 463 441 309 261 186 122 61 14 20 8 3 4 7
38 1 0 0 0 0 0 1098 1645 1576 1164 1028 935 914 847 598 448 447 387 293 224 180 143 96 92 49 22 12 10 2 6 2
4 7 10 3 1 0 0 12 1516 1441 1091 1060 999 881 801 681 598 490 368 254 164 137 105 89 68 19 15 19 9 13 6 0
0 0 0 1 113 6 0 126 908 1154 1110 1178 1183 1111 1010 802 593 485 382 228 97 48 38 8 28 12 16 14 23 22 9 1
0 0 0 0 34 68 174 371 889 1091 1189 1181 1131 1208 1086 750 551 473 295 203 141 76 14 12 6 9 8 21 10 10 9 1
0 0 1 0 1 0 11 122 281 843 991 921 988 932 538 357 263 223 125 45 15 0 2 4 6 2 1 5 6 2 18 3
1 1 3 4 2 1 0 0 66 432 768 608 486 330 231 223 152 55 20 0 0 0 0 0 3 5 2 10 2 12 16 1
0 1 3 1 1 1 0 1 28 170 231 348 243 152 171 133 65 1 0 0 0 0 2 1 2 1 6 19 1 6 3 6
0 0 5 4 4 2 3 1 4 15 82 107 77 54 90 66 57 0 0 0 1 1 1 0 0 0 2 6 16 1 4 4
1 1 4 4 5 3 4 2 6 2 5 25 7 1 34 55 8 0 0 1 1 1 0 0 0 0 0 1 0 1 0 0
4 5 4 5 6 5 3 2 5 5 0 1 2 5 10 5 2 0 0 1 1 1 1 0 0 0 0 1 1 1 0 0
5 4 4 5 4 5 5 3 3 3 4 0 0 9 16 13 37 29 4 1 1 1 1 1 0 0 0 0 0 0 0 0
5 3 3 3 3 3 4 3 0 2 6 7 3 0 0 0 0 0 1 2 1 2 3 2 1 2 1 0 0 0 0 0
2 1 2 2 2 2 2 3 0 2 3 6 8 3 2 8 6 4 4 6 6 7 6 6 4 3 1 0 0 1 1 3
CIN
0 0 0 0 0 0 0 -113 -138 -125 -146 -141 -126 -101 -103 -93 -81 -80 -80 -91 -110 -125 -124 -103 -75 -47 -31 -17 -6 -3 -1 -13
0 0 0 0 0 0 0 -120 -149 -124 -117 -128 -111 -135 -127 -109 -119 -103 -83 -72 -93 -94 -92 -81 -56 -41 -33 -25 -9 -5 -2 -5
0 0 0 0 0 0 0 -126 -147 -152 -159 -165 -154 -156 -145 -117 -101 -127 -122 -122 -92 -88 -103 -93 -65 -33 -27 -30 -20 -5 -2 -22
0 0 0 0 0 0 0 -140 -172 -160 -183 -162 -137 -134 -113 -96 -112 -109 -126 -134 -134 -117 -106 -92 -52 -23 -17 -22 -16 -21 -10 -6
0 0 0 0 0 0 -179 -152 -170 -176 -180 -158 -167 -187 -154 -167 -150 -173 -144 -135 -146 -126 -111 -85 -56 -34 -35 -40 -2 -20 -11 -17
-78 0 0 0 0 0 -189 -127 -146 -155 -151 -184 -190 -177 -160 -161 -169 -190 -167 -173 -162 -153 -127 -102 -66 -59 -40 -73 -20 -13 -12 -12
-145 -142 0 0 0 0 0 -116 -132 -139 -150 -203 -178 -142 -127 -169 -193 -191 -223 -235 -226 -194 -168 -130 -78 -67 -40 -10 -9 -24 -25 -16
-332 -320 -386 -388 -391 -59 0 -47 -125 -125 -167 -170 -156 -126 -135 -131 -137 -195 -233 -256 -258 -212 -164 -115 -85 -76 -0 -4 -29 -13 -15 -2
0 0 -67 -170 -247 -224 0 -136 -113 -133 -150 -125 -86 -76 -70 -91 -143 -193 -229 -273 -300 -265 -192 -22 -132 -2 -0 -10 -0 -5 -19 -12
0 0 0 0 -227 -235 -196 -116 -96 -85 -97 -78 -57 -45 -50 -65 -147 -194 -246 -260 -245 -210 -194 -84 -1 -4 -12 -5 -1 -10 -10 -13
0 0 0 0 0 0 -133 -203 -125 -64 -56 -40 -34 -53 -76 -146 -214 -230 -257 -306 -342 0 0 0 0 -7 -1 -0 -3 -0 -7 -20
0 0 0 0 0 0 0 -12 -170 -98 -38 -62 -77 -126 -178 -208 -232 -295 -355 0 0 0 0 -1 -23 -1 -0 -5 0 -1 -5 -0
0 0 0 0 0 0 0 0 -39 -85 -124 -106 -130 -174 -207 -227 -269 -42 0 -0 -2 0 0 0 0 0 -8 -7 -0 -14 -3 -8
0 0 0 0 0 0 0 0 0 -71 -114 -138 -177 -183 -197 -251 -273 -20 -0 0 0 0 0 0 0 -0 -8 -3 -2 -2 -21 -16
0 0 0 0 0 0 0 0 0 0 -131 -148 -175 -107 -183 -217 -303 0 -3 0 0 0 0 0 0 0 0 0 0 -11 -17 0
0 0 0 0 0 0 0 0 0 0 0 -130 -152 -182 -138 -152 -18 0 0 0 0 0 0 0 0 0 0 0 0 0 0 0
0 0 0 0 0 0 0 0 0 0 0 0 0 -108 -24 -100 -182 -199 -217 0 0 0 0 0 0 0 0 0 0 0 0 0
0 0 0 0 0 0 0 0 0 0 0 0 0 0 0 0 0 0 0 0 0 0 0 0 0 0 0 0 0 0 0 0
0 0 0 0 0 0 0 0 0 0 0 0 0 0 0 0 0 0 0 0 0 0 0 0 0 0 0 0 0 0 0 0
Wind_Speed
31 36 29 26 26 26 23 21 22 19 17 15 14 13 13 13 11 8 8 8 6 6 7 6 6 6 7 9 12 12 24 14
30 31 29 31 25 24 25 20 20 19 16 14 13 14 13 13 13 13 10 9 8 7 7 7 7 7 8 8 13 12 17 20
40 40 38 31 27 25 25 20 19 20 17 15 15 13 14 13 11 12 12 10 9 9 8 8 7 9 9 9 13 20 21 13
40 38 44 41 33 27 20 16 18 19 16 14 14 13 12 12 13 13 12 11 10 10 9 8 8 9 12 11 12 17 19 16
32 26 24 25 29 26 17 17 17 17 15 13 13 14 15 14 16 17 15 12 11 12 10 9 9 10 11 13 11 14 18 17
18 22 28 31 29 29 21 16 17 16 15 13 14 15 13 13 16 16 13 13 13 11 10 10 11 10 12 11 12 12 17 19
19 23 26 31 34 34 19 19 18 16 14 13 14 13 11 12 14 13 13 14 12 11 11 11 11 12 14 15 15 14 17 22
20 23 27 31 34 32 18 18 16 15 13 14 14 12 11 13 13 13 13 15 16 12 10 10 11 13 13 13 16 17 19 22
21 24 26 28 27 22 12 15 14 14 15 14 12 11 12 12 12 12 13 14 13 10 11 11 12 12 14 16 17 19 19 23
22 23 24 23 21 18 15 12 17 15 12 11 11 10 12 12 12 11 13 12 12 12 11 10 13 12 15 16 19 21 19 23
22 21 22 22 21 20 19 20 20 14 9 8 8 9 10 11 11 12 16 16 17 16 12 11 12 12 13 17 18 21 21 23
22 21 22 20 20 20 21 21 24 17 7 7 7 9 10 9 12 16 18 17 14 15 14 14 12 12 13 15 20 21 23 24
22 21 22 21 22 22 22 23 22 13 9 7 9 10 9 13 16 16 15 13 11 11 12 10 11 10 9 16 19 19 26 25
23 23 22 22 22 23 23 22 21 15 10 9 11 10 11 13 13 14 13 12 10 10 8 7 9 15 15 16 13 16 22 20
23 24 24 24 24 24 23 22 20 19 11 12 13 13 11 11 14 13 11 9 7 7 7 9 9 12 17 16 11 16 20 20
24 25 25 25 24 24 24 22 21 21 20 13 14 11 10 13 14 11 10 7 5 5 6 8 11 8 11 11 10 12 19 17
25 25 26 25 25 24 24 22 21 20 19 18 16 13 12 16 14 11 9 9 7 4 5 5 7 10 14 12 9 14 16 12
25 25 25 25 25 25 23 22 21 20 19 20 17 12 12 14 12 11 12 11 10 9 10 9 11 16 19 12 12 15 19 25
24 25 25 25 25 24 23 21 19 19 20 20 20 14 12 14 12 11 12 11 10 9 10 11 12 15 13 9 6 9 11 17
Wind_Direction
270 267 265 264 261 259 254 240 234 228 236 246 248 246 253 246 242 250 239 253 241 261 279 275 268 276 263 265 263 256 269 270
278 274 273 262 260 255 254 237 226 220 223 232 244 239 252 249 238 240 251 258 251 260 272 268 263 270 260 251 270 263 275 261
271 271 268 271 265 259 253 225 216 217 222 239 259 254 262 246 255 251 235 245 258 268 267 262 257 273 267 256 259 266 265 236
269 267 258 259 262 259 254 225 222 224 231 246 267 271 271 245 234 254 258 244 245 253 263 261 260 265 264 256 248 255 252 245
268 271 273 270 267 260 247 234 223 224 221 232 244 258 253 240 256 259 260 262 258 263 260 258 256 261 255 264 229 248 254 224
276 281 273 270 271 268 252 223 223 218 221 235 249 268 255 256 259 261 252 262 268 262 252 257 259 249 247 238 229 252 237 225
286 289 287 281 273 266 257 232 228 217 225 242 252 254 241 248 254 256 265 271 271 264 259 253 248 242 236 240 237 219 228 233
291 296 291 285 279 270 249 236 225 218 233 248 259 246 236 243 245 260 269 276 283 279 260 257 256 247 241 240 221 225 222 227
304 302 297 292 290 279 243 241 232 237 253 255 256 238 242 249 248 263 271 282 291 284 273 266 253 243 236 237 227 223 217 228
311 303 304 301 299 291 277 269 258 252 251 257 251 245 252 252 262 268 280 293 300 298 281 264 265 246 238 227 239 230 219 224
313 304 304 302 298 296 284 280 279 270 249 249 253 248 249 260 269 277 289 303 304 302 295 277 269 249 225 238 239 223 232 225
317 304 304 306 302 300 293 289 282 282 246 248 246 255 260 270 277 288 299 308 311 307 303 293 280 255 240 230 234 241 231 225
318 305 306 305 305 304 298 291 286 286 271 251 257 258 272 277 284 298 310 316 322 321 315 311 297 272 228 231 229 241 230 231
319 315 306 305 302 301 297 292 285 283 275 266 261 269 271 279 290 306 316 324 336 337 341 345 322 277 243 245 211 219 230 229
318 316 312 306 300 300 295 291 290 281 280 272 269 276 278 283 293 310 319 336 355 356 20 12 8 292 254 244 232 223 228 226
319 317 316 312 304 299 295 292 290 280 274 279 275 276 285 285 295 307 317 339 14 358 31 22 38 327 274 246 240 226 227 222
320 317 317 314 307 299 297 296 295 290 286 285 281 285 287 282 286 304 315 324 342 4 353 31 350 322 267 265 262 243 232 223
325 322 318 315 310 305 303 303 299 296 294 288 283 298 294 278 288 300 307 312 322 329 325 315 311 295 276 283 263 254 249 246
332 329 325 323 320 316 309 311 312 301 296 295 290 303 291 276 284 296 306 315 321 321 322 318 308 301 302 293 273 273 273 260